Regional Weather Roundup
Issued by NWS Newport/Morehead, NC

Current Version | Previous Version | Graphics & Text | Print | Product List | Glossary Off
Versions: 1 2 3 4 5 6 7 8 9 10 11 12 13 14 15 16 17 18 19 20 21 22 23 24 25 26 27 28 29 30 31 32 33 34 35 36 37 38 39 40 41 42 43 44 45 46 47 48 49 50

000
ASUS42 KMHX 021413
RWRMHX
WEATHER ROUNDUP FOR EASTERN NORTH CAROLINA
NATIONAL WEATHER SERVICE NEWPORT/MOREHEAD CITY NC
1000 AM EDT WED SEP 02 2015

NOTE: "FAIR" INDICATES FEW OR NO CLOUDS BELOW 12,000 FEET
WITH NO SIGNIFICANT WEATHER AND/OR OBSTRUCTIONS TO VISIBILITY

NCZ015>017-031-032-045>047-102-103-021500-
NORTH COAST

CITY           SKY/WX    TMP DP  RH WIND       PRES   REMARKS
EDENTON        SUNNY     81  71  72 CALM      30.06S
ELIZABETH CITY SUNNY     82  73  74 VRB5      30.05F
KITTY HAWK     SUNNY     84  74  72 N3        30.04S
MANTEO         SUNNY     81  74  79 N6        30.06S

$$

NCZ045>047-081-094-103-104-021500-
CENTRAL COAST

CITY           SKY/WX    TMP DP  RH WIND       PRES   REMARKS
FRISCO         SUNNY     82  73  74 VRB6      30.05F
SWANQUARTER      N/A     82 N/A N/A N1        30.03S

$$

NCZ095-097-098-100-101-021500-
SOUTHERN COAST

CITY           SKY/WX    TMP DP  RH WIND       PRES   REMARKS
BEAUFORT       MOSUNNY   81  76  84 NW5       30.06S
CEDAR ISLAND     N/A     81 N/A N/A NW3       30.09S
JACKSONVILLE   SUNNY     83  71  67 N6        30.06F
PINEY ISLAND   SUNNY    N/A N/A N/A NW7       30.05F
WILMINGTON     SUNNY     84  74  71 N6        30.06F


$$

NCZ011>013-027>030-043-044-078>080-089-090>093-098-021500-
COASTAL PLAIN

CITY           SKY/WX    TMP DP  RH WIND       PRES   REMARKS
AHOSKIE        SUNNY     81  71  72 CALM      30.06S
CLINTON        SUNNY     82  75  79 CALM      30.08S
ELIZABETHTOWN  MOSUNNY   82  72  72 W3        30.07F
GOLDSBORO      SUNNY     82  73  73 VRB1      30.06F
GREENVILLE     SUNNY     82  72  69 CALM      30.07F
HAVELOCK       MOSUNNY   83  74  74 VRB5      30.07F
KENANSVILLE      N/A     82  71  70 N3        30.08F
KINSTON        SUNNY     82  73  74 CALM      30.07F
NEW BERN       SUNNY     84  73  69 NW3       30.07F
RICHLANDS      SUNNY     81  70  69 NW5       30.07S
ROCKY MOUNT    SUNNY     83  72  69 VRB3      30.07S
WASHINGTON     SUNNY     82  73  73 CALM      30.06F
WHITEVILLE     SUNNY     82  73  75 CALM      30.07F

$$

AMZ130-135-150-152-154-156-158-170-250-252-270-ANZ085-086-088-633-658-670-021500-
MARINE OBSERVATIONS

STATION/POSITION TIME  TEMP    WIND        PRES    WAVE   SWELL
                       AIR SEA DIR/SP/G            HT/PER HT/PER
                 (UTC) (F)     (DEG/KT/KT) (MB)    (FT/S) (FT/S)
CHESAPEAKE LIGHT 1400   82     280/  3/  3 1018.0
64 E VA BEACH    1350   79 79   CALM  /  2 1017.1    2/ 7   2/ 7
DUCK             1300   77 78  310/  6/  6 1017.0
2 E DUCK         1311      80                N/A     1/ 9
OREGON INLET     1300   78 81  360/  3/  5 1017.7
13E OREGON INLT  1400      79                N/A     2/13   2/13
HATTERAS CG      1300   79 81  340/  7/  8 1017.6
DIAMOND BUOY     1350   80 84  350/  8/ 10 1017.6    2/10   2/10
CAPE LOOKOUT     1400   80     330/  4/  5 1017.5
BEAUFORT LAB     1300   78 80  360/  5/  7 1017.5
30 SE NEW RVR IN 1308   80 81  320/ 10/ 14 1018.5
30 SE NEW RVR IN 1325      81                N/A     2/ 6
27 SE WRIGHTSVLE 1300   77 81  310/ 10/ 12   N/A
5 SE WRIGHTSVLE  1308   80 82  300/ 12/ 14 1018.1
225 S CAPE HAT   1350   81 83  270/  4/  6 1018.7    2/ 8   2/ 8
41 SE CHARLESTON 1350   81 84  360/  8/  8 1018.6    2/ 9   2/ 9

$$



USA.gov is the U.S. government's official web portal to all federal, state and local government web resources and services.